EWG7MG EGCC-EDDL

Flight info

Callsign EWG7MG
Flight time 1h 1m
Altitude 35000
Route SONEX L975 DESIG L603 LAMSO DCT EVELI DCT PAM P62 PISAP PISAP1A
Aircraft A321/M-SDE3FGHIRWY/LB1

Departure

Time 2026-05-07 19:59
Airport Manchester Airport (EGCC)

Arrival

Time 2026-05-07 21:01
Airport Düsseldorf Airport (EDDL)
Time Latitude Longitude Altitude Speed Heading
2026-05-07 19:33 53.36865 -2.28836 255 ft 0 kts 134°
2026-05-07 19:44 53.36870 -2.28844 255 ft 2 kts 133°
2026-05-07 19:44 53.36881 -2.28864 255 ft 2 kts 137°
2026-05-07 19:44 53.36894 -2.28881 255 ft 2 kts 189°
2026-05-07 19:44 53.36909 -2.28870 255 ft 2 kts 221°
2026-05-07 19:45 53.36920 -2.28852 255 ft 1 kts 224°
2026-05-07 19:45 53.36922 -2.28850 255 ft 0 kts 224°
2026-05-07 19:49 53.36908 -2.28873 255 ft 6 kts 224°
2026-05-07 19:49 53.36869 -2.28936 255 ft 10 kts 224°
2026-05-07 19:49 53.36815 -2.29014 255 ft 11 kts 209°
2026-05-07 19:49 53.36742 -2.29029 255 ft 11 kts 154°
2026-05-07 19:50 53.36690 -2.28948 255 ft 7 kts 135°
2026-05-07 19:50 53.36663 -2.28906 255 ft 5 kts 148°
2026-05-07 19:50 53.36644 -2.28895 255 ft 0 kts 163°
2026-05-07 19:51 53.36615 -2.28878 255 ft 7 kts 147°
2026-05-07 19:51 53.36579 -2.28778 255 ft 12 kts 118°
2026-05-07 19:51 53.36527 -2.28670 255 ft 12 kts 134°
2026-05-07 19:51 53.36464 -2.28562 255 ft 13 kts 135°
2026-05-07 19:52 53.36436 -2.28515 255 ft 0 kts 135°
2026-05-07 19:52 53.36430 -2.28504 255 ft 6 kts 135°
2026-05-07 19:52 53.36361 -2.28469 255 ft 12 kts 167°
2026-05-07 19:53 53.36291 -2.28381 255 ft 14 kts 135°
2026-05-07 19:53 53.36201 -2.28229 255 ft 21 kts 134°
2026-05-07 19:53 53.36098 -2.28056 255 ft 21 kts 139°
2026-05-07 19:53 53.35997 -2.27909 255 ft 14 kts 139°
2026-05-07 19:54 53.35910 -2.27849 255 ft 12 kts 179°
2026-05-07 19:54 53.35854 -2.27811 253 ft 11 kts 134°
2026-05-07 19:54 53.35797 -2.27704 251 ft 13 kts 131°
2026-05-07 19:54 53.35708 -2.27626 247 ft 17 kts 158°
2026-05-07 19:55 53.35627 -2.27532 246 ft 13 kts 138°
2026-05-07 19:55 53.35644 -2.27403 248 ft 11 kts 51°
2026-05-07 19:55 53.35683 -2.27324 255 ft 12 kts 51°
2026-05-07 19:55 53.35763 -2.27159 255 ft 21 kts 50°
2026-05-07 19:56 53.35846 -2.26955 255 ft 22 kts 57°
2026-05-07 19:56 53.35932 -2.26751 255 ft 20 kts 53°
2026-05-07 19:56 53.36017 -2.26576 255 ft 20 kts 51°
2026-05-07 19:56 53.36110 -2.26385 255 ft 22 kts 51°
2026-05-07 19:57 53.36177 -2.26265 257 ft 10 kts 34°
2026-05-07 19:57 53.36235 -2.26169 255 ft 14 kts 51°
2026-05-07 19:57 53.36270 -2.26017 255 ft 15 kts 94°
2026-05-07 19:57 53.36290 -2.25872 256 ft 11 kts 84°
2026-05-07 19:58 53.36261 -2.25768 260 ft 9 kts 138°
2026-05-07 19:58 53.36209 -2.25770 260 ft 10 kts 227°
2026-05-07 19:58 53.36133 -2.25928 259 ft 33 kts 231°
2026-05-07 19:58 53.35838 -2.26539 270 ft 100 kts 231°
2026-05-07 19:59 53.35253 -2.27746 238 ft 161 kts 231°
2026-05-07 19:59 53.34498 -2.29319 562 ft 179 kts 231°
2026-05-07 19:59 53.33730 -2.30934 1341 ft 174 kts 229°
2026-05-07 19:59 53.32981 -2.32514 1990 ft 172 kts 227°
2026-05-07 20:00 53.32311 -2.34163 2589 ft 174 kts 243°
2026-05-07 20:00 53.32110 -2.35468 2989 ft 178 kts 259°
2026-05-07 20:00 53.32253 -2.37578 3558 ft 186 kts 284°
2026-05-07 20:00 53.32959 -2.39503 3788 ft 212 kts 312°
2026-05-07 20:01 53.34308 -2.40817 3927 ft 241 kts 343°
2026-05-07 20:01 53.36044 -2.40735 4071 ft 266 kts 22°
2026-05-07 20:01 53.37580 -2.38930 4511 ft 276 kts 46°
2026-05-07 20:01 53.38948 -2.36612 4923 ft 281 kts 48°
2026-05-07 20:02 53.40292 -2.34218 5332 ft 283 kts 48°
2026-05-07 20:02 53.41630 -2.31792 6078 ft 285 kts 48°
2026-05-07 20:02 53.42989 -2.29334 6760 ft 289 kts 47°
2026-05-07 20:02 53.44368 -2.26861 7431 ft 292 kts 47°
2026-05-07 20:03 53.45767 -2.24366 8113 ft 295 kts 47°
2026-05-07 20:03 53.47185 -2.21850 8782 ft 298 kts 47°
2026-05-07 20:03 53.48615 -2.19304 9474 ft 301 kts 50°
2026-05-07 20:03 53.49702 -2.16306 10105 ft 303 kts 72°
2026-05-07 20:04 53.50060 -2.12822 10491 ft 311 kts 95°
2026-05-07 20:04 53.49600 -2.09204 10627 ft 326 kts 110°
2026-05-07 20:04 53.48901 -2.05469 10788 ft 344 kts 110°
2026-05-07 20:04 53.48169 -2.01577 11198 ft 352 kts 110°
2026-05-07 20:05 53.47439 -1.97623 11765 ft 356 kts 109°
2026-05-07 20:05 53.46802 -1.93590 12381 ft 359 kts 106°
2026-05-07 20:05 53.46252 -1.89495 13000 ft 361 kts 104°
2026-05-07 20:05 53.46085 -1.88161 13201 ft 362 kts 104°
2026-05-07 20:06 53.45836 -1.86120 13452 ft 365 kts 104°
2026-05-07 20:06 53.45329 -1.81928 14015 ft 366 kts 104°
2026-05-07 20:07 53.44818 -1.77732 14591 ft 367 kts 104°
2026-05-07 20:07 53.44290 -1.73528 15116 ft 370 kts 104°
2026-05-07 20:07 53.43742 -1.69305 15624 ft 372 kts 105°
2026-05-07 20:07 53.43176 -1.65043 16123 ft 375 kts 105°
2026-05-07 20:08 53.42599 -1.60754 16623 ft 378 kts 105°
2026-05-07 20:08 53.42017 -1.56459 17121 ft 381 kts 105°
2026-05-07 20:08 53.41430 -1.52117 17598 ft 383 kts 105°
2026-05-07 20:08 53.40839 -1.47724 18110 ft 386 kts 105°
2026-05-07 20:09 53.40245 -1.43325 18558 ft 388 kts 105°
2026-05-07 20:09 53.39641 -1.38880 18983 ft 391 kts 105°
2026-05-07 20:09 53.39036 -1.34425 19379 ft 394 kts 105°
2026-05-07 20:10 53.37818 -1.25486 20178 ft 398 kts 105°
2026-05-07 20:10 53.37194 -1.20942 20571 ft 401 kts 105°
2026-05-07 20:10 53.36568 -1.16381 20975 ft 404 kts 105°
2026-05-07 20:10 53.35936 -1.11786 21363 ft 406 kts 105°
2026-05-07 20:11 53.35299 -1.07161 21741 ft 409 kts 105°
2026-05-07 20:11 53.34655 -1.02516 22119 ft 411 kts 105°
2026-05-07 20:11 53.34005 -0.97853 22532 ft 412 kts 105°
2026-05-07 20:11 53.33351 -0.93165 22932 ft 414 kts 105°
2026-05-07 20:12 53.32696 -0.88464 23327 ft 417 kts 105°
2026-05-07 20:12 53.32031 -0.83736 23671 ft 419 kts 105°
2026-05-07 20:12 53.31359 -0.78982 23990 ft 421 kts 105°
2026-05-07 20:12 53.30679 -0.74202 24318 ft 423 kts 105°
2026-05-07 20:13 53.29996 -0.69417 24649 ft 424 kts 105°
2026-05-07 20:13 53.29309 -0.64611 24972 ft 426 kts 105°
2026-05-07 20:13 53.28620 -0.59781 25295 ft 428 kts 105°
2026-05-07 20:13 53.27926 -0.54935 25615 ft 429 kts 105°
2026-05-07 20:14 53.27237 -0.50142 25928 ft 431 kts 105°
2026-05-07 20:14 53.26538 -0.45273 26238 ft 432 kts 105°
2026-05-07 20:14 53.25834 -0.40380 26559 ft 434 kts 105°
2026-05-07 20:14 53.25131 -0.35519 26855 ft 435 kts 105°
2026-05-07 20:15 53.24411 -0.30575 27070 ft 439 kts 105°
2026-05-07 20:15 53.23685 -0.25615 27346 ft 442 kts 105°
2026-05-07 20:15 53.22948 -0.20574 27632 ft 444 kts 105°
2026-05-07 20:15 53.22212 -0.15555 27928 ft 446 kts 105°
2026-05-07 20:16 53.21470 -0.10523 28216 ft 448 kts 105°
2026-05-07 20:16 53.20722 -0.05471 28505 ft 449 kts 105°
2026-05-07 20:16 53.19969 -0.00398 28790 ft 451 kts 105°
2026-05-07 20:16 53.19215 0.04675 29120 ft 451 kts 105°
2026-05-07 20:17 53.18461 0.09753 29426 ft 452 kts 105°
2026-05-07 20:17 53.17703 0.14840 29686 ft 453 kts 106°
2026-05-07 20:17 53.16937 0.19950 29947 ft 454 kts 106°
2026-05-07 20:17 53.16165 0.25062 30176 ft 456 kts 106°
2026-05-07 20:18 53.15385 0.30195 30363 ft 457 kts 106°
2026-05-07 20:18 53.14606 0.35329 30596 ft 457 kts 106°
2026-05-07 20:18 53.13826 0.40459 30846 ft 457 kts 106°
2026-05-07 20:18 53.13046 0.45581 31102 ft 456 kts 106°
2026-05-07 20:19 53.12265 0.50698 31350 ft 456 kts 106°
2026-05-07 20:19 53.11491 0.55742 31609 ft 455 kts 106°
2026-05-07 20:19 53.10708 0.60826 31891 ft 453 kts 106°
2026-05-07 20:19 53.09924 0.65904 32148 ft 453 kts 106°
2026-05-07 20:20 53.09137 0.70977 32388 ft 452 kts 106°
2026-05-07 20:20 53.08348 0.76034 32621 ft 452 kts 107°
2026-05-07 20:20 53.07555 0.81092 32847 ft 452 kts 107°
2026-05-07 20:20 53.06762 0.86154 33077 ft 452 kts 107°
2026-05-07 20:21 53.05970 0.91206 33295 ft 452 kts 107°
2026-05-07 20:21 53.05174 0.96260 33517 ft 452 kts 107°
2026-05-07 20:21 53.04376 1.01312 33735 ft 452 kts 107°
2026-05-07 20:21 53.03575 1.06357 33966 ft 451 kts 107°
2026-05-07 20:22 53.02773 1.11379 34191 ft 450 kts 107°
2026-05-07 20:22 53.01968 1.16396 34364 ft 450 kts 107°
2026-05-07 20:22 53.01161 1.21419 34520 ft 450 kts 107°
2026-05-07 20:22 53.00354 1.26440 34686 ft 450 kts 107°
2026-05-07 20:23 52.99544 1.31476 34820 ft 451 kts 107°
2026-05-07 20:23 52.98731 1.36519 34936 ft 453 kts 107°
2026-05-07 20:23 52.97914 1.41567 35080 ft 454 kts 107°
2026-05-07 20:24 52.96268 1.51680 35112 ft 454 kts 107°
2026-05-07 20:24 52.94626 1.61722 35115 ft 453 kts 107°
2026-05-07 20:25 52.92960 1.71802 35116 ft 453 kts 107°
2026-05-07 20:25 52.91293 1.81869 35117 ft 453 kts 107°
2026-05-07 20:26 52.89617 1.91934 35119 ft 453 kts 107°
2026-05-07 20:26 52.87916 2.02007 35125 ft 454 kts 107°
2026-05-07 20:27 52.86210 2.12074 35131 ft 454 kts 107°
2026-05-07 20:27 52.84501 2.22143 35134 ft 454 kts 107°
2026-05-07 20:28 52.82791 2.32203 35145 ft 454 kts 107°
2026-05-07 20:28 52.81064 2.42247 35145 ft 454 kts 107°
2026-05-07 20:29 52.79354 2.52299 35135 ft 454 kts 106°
2026-05-07 20:29 52.77962 2.62492 35135 ft 455 kts 103°
2026-05-07 20:30 52.76746 2.72755 35141 ft 455 kts 102°
2026-05-07 20:30 52.75492 2.82938 35143 ft 455 kts 103°
2026-05-07 20:31 52.74142 2.93146 35142 ft 455 kts 104°
2026-05-07 20:31 52.72428 3.03145 35121 ft 453 kts 113°
2026-05-07 20:32 52.70132 3.12831 35121 ft 454 kts 113°
2026-05-07 20:32 52.67843 3.22563 35117 ft 455 kts 113°
2026-05-07 20:33 52.65553 3.32292 35119 ft 455 kts 113°
2026-05-07 20:33 52.63439 3.42120 35132 ft 457 kts 107°
2026-05-07 20:34 52.61713 3.52197 35132 ft 457 kts 107°
2026-05-07 20:34 52.59978 3.62255 35133 ft 457 kts 107°
2026-05-07 20:35 52.58243 3.72239 35136 ft 457 kts 108°
2026-05-07 20:35 52.56493 3.82286 35140 ft 457 kts 108°
2026-05-07 20:36 52.54731 3.92317 35139 ft 457 kts 108°
2026-05-07 20:36 52.52958 4.02344 35128 ft 457 kts 108°
2026-05-07 20:37 52.51179 4.12359 35130 ft 457 kts 108°
2026-05-07 20:37 52.49395 4.22365 35118 ft 457 kts 108°
2026-05-07 20:38 52.47604 4.32337 35123 ft 457 kts 108°
2026-05-07 20:38 52.45805 4.42333 35116 ft 457 kts 108°
2026-05-07 20:39 52.43997 4.52323 35107 ft 458 kts 108°
2026-05-07 20:39 52.42165 4.62334 35087 ft 459 kts 108°
2026-05-07 20:40 52.40326 4.72379 35110 ft 460 kts 108°
2026-05-07 20:40 52.38486 4.82356 35118 ft 461 kts 108°
2026-05-07 20:41 52.36619 4.92401 35121 ft 462 kts 109°
2026-05-07 20:41 52.34763 5.02321 35105 ft 461 kts 109°
2026-05-07 20:42 52.32032 5.11561 34846 ft 446 kts 133°
2026-05-07 20:42 52.29957 5.15302 34605 ft 442 kts 135°
2026-05-07 20:42 52.27884 5.18983 34111 ft 440 kts 135°
2026-05-07 20:42 52.25816 5.22651 33557 ft 437 kts 135°
2026-05-07 20:43 52.23768 5.26278 33088 ft 432 kts 135°
2026-05-07 20:43 52.21717 5.29907 32003 ft 441 kts 135°
2026-05-07 20:43 52.19605 5.33635 30977 ft 450 kts 135°
2026-05-07 20:43 52.17501 5.37345 30605 ft 442 kts 135°
2026-05-07 20:44 52.15453 5.40954 30148 ft 437 kts 135°
2026-05-07 20:44 52.13400 5.44575 29514 ft 433 kts 135°
2026-05-07 20:44 52.11368 5.48162 28911 ft 429 kts 135°
2026-05-07 20:44 52.09350 5.51714 28327 ft 425 kts 135°
2026-05-07 20:45 52.07346 5.55223 27745 ft 422 kts 135°
2026-05-07 20:45 52.05354 5.58703 27169 ft 418 kts 135°
2026-05-07 20:45 52.03380 5.62151 26605 ft 415 kts 135°
2026-05-07 20:45 52.01425 5.65571 26058 ft 412 kts 135°
2026-05-07 20:46 51.99484 5.68961 25520 ft 408 kts 135°
2026-05-07 20:46 51.97556 5.72324 24994 ft 405 kts 135°
2026-05-07 20:46 51.95642 5.75661 24474 ft 402 kts 135°
2026-05-07 20:46 51.93738 5.78968 23963 ft 400 kts 135°
2026-05-07 20:47 51.91846 5.82249 23429 ft 397 kts 135°
2026-05-07 20:47 51.89967 5.85498 22865 ft 394 kts 135°
2026-05-07 20:47 51.88732 5.87631 22489 ft 392 kts 135°
2026-05-07 20:47 51.86871 5.90844 21920 ft 389 kts 135°
2026-05-07 20:48 51.85031 5.94025 21395 ft 386 kts 135°
2026-05-07 20:48 51.83208 5.97181 20879 ft 382 kts 135°
2026-05-07 20:48 51.81398 6.00311 20371 ft 379 kts 135°
2026-05-07 20:48 51.79602 6.03409 19863 ft 376 kts 135°
2026-05-07 20:49 51.77821 6.06473 19357 ft 373 kts 135°
2026-05-07 20:49 51.76047 6.09511 18853 ft 370 kts 135°
2026-05-07 20:49 51.74290 6.12511 18351 ft 367 kts 135°
2026-05-07 20:49 51.72543 6.15492 17797 ft 364 kts 135°
2026-05-07 20:50 51.70810 6.18447 17274 ft 361 kts 135°
2026-05-07 20:50 51.69095 6.21369 16701 ft 357 kts 135°
2026-05-07 20:50 51.67398 6.24266 16008 ft 352 kts 134°
2026-05-07 20:50 51.65741 6.27100 15403 ft 340 kts 134°
2026-05-07 20:51 51.64142 6.29832 14802 ft 330 kts 135°
2026-05-07 20:51 51.62415 6.32148 14200 ft 320 kts 154°
2026-05-07 20:51 51.60382 6.33495 13470 ft 314 kts 162°
2026-05-07 20:51 51.58326 6.34613 12693 ft 311 kts 163°
2026-05-07 20:52 51.56306 6.35682 11950 ft 308 kts 163°
2026-05-07 20:52 51.54280 6.36744 11226 ft 305 kts 163°
2026-05-07 20:52 51.52271 6.37789 10523 ft 302 kts 163°
2026-05-07 20:52 51.50301 6.38805 10057 ft 292 kts 163°
2026-05-07 20:53 51.48385 6.39789 9432 ft 287 kts 163°
2026-05-07 20:53 51.46492 6.40757 8774 ft 284 kts 163°
2026-05-07 20:53 51.44621 6.41709 8137 ft 281 kts 163°
2026-05-07 20:53 51.42764 6.42649 7497 ft 278 kts 163°
2026-05-07 20:54 51.40921 6.43566 6879 ft 276 kts 163°
2026-05-07 20:54 51.39112 6.44445 6522 ft 263 kts 163°
2026-05-07 20:54 51.37415 6.45263 6256 ft 249 kts 163°
2026-05-07 20:54 51.35772 6.46055 5777 ft 244 kts 163°
2026-05-07 20:55 51.34154 6.46827 5252 ft 242 kts 163°
2026-05-07 20:55 51.32545 6.47584 4715 ft 240 kts 163°
2026-05-07 20:55 51.30955 6.48327 4192 ft 237 kts 163°
2026-05-07 20:55 51.29373 6.49060 3666 ft 235 kts 163°
2026-05-07 20:56 51.27799 6.49778 3242 ft 235 kts 163°
2026-05-07 20:56 51.26235 6.50485 3006 ft 232 kts 163°
2026-05-07 20:56 51.24699 6.51178 2980 ft 233 kts 163°
2026-05-07 20:56 51.23163 6.51869 2996 ft 224 kts 163°
2026-05-07 20:57 51.21777 6.52888 2916 ft 217 kts 141°
2026-05-07 20:57 51.20800 6.54676 2880 ft 214 kts 117°
2026-05-07 20:57 51.20364 6.56920 2812 ft 212 kts 94°
2026-05-07 20:57 51.20525 6.59156 2644 ft 197 kts 72°
2026-05-07 20:58 51.21169 6.61015 2417 ft 188 kts 53°
2026-05-07 20:58 51.21952 6.62639 2178 ft 184 kts 53°
2026-05-07 20:58 51.22732 6.64265 1934 ft 184 kts 53°
2026-05-07 20:58 51.23511 6.65892 1682 ft 183 kts 54°
2026-05-07 20:59 51.24282 6.67501 1426 ft 180 kts 54°
2026-05-07 20:59 51.25009 6.69019 1193 ft 164 kts 53°
2026-05-07 20:59 51.25667 6.70396 966 ft 150 kts 53°
2026-05-07 20:59 51.26293 6.71714 752 ft 150 kts 53°
2026-05-07 21:00 51.26921 6.73031 555 ft 147 kts 53°
2026-05-07 21:00 51.27537 6.74317 369 ft 143 kts 53°
2026-05-07 21:00 51.28140 6.75578 169 ft 142 kts 53°
2026-05-07 21:00 51.28692 6.76737 129 ft 107 kts 52°
2026-05-07 21:01 51.28957 6.77293 125 ft 19 kts 53°
2026-05-07 21:01 51.29011 6.77410 127 ft 13 kts 58°
2026-05-07 21:01 51.29017 6.77548 128 ft 14 kts 119°
2026-05-07 21:01 51.28942 6.77644 127 ft 12 kts 144°
2026-05-07 21:02 51.28879 6.77593 127 ft 12 kts 232°
2026-05-07 21:02 51.28827 6.77484 127 ft 13 kts 232°
2026-05-07 21:02 51.28772 6.77369 124 ft 14 kts 233°
2026-05-07 21:02 51.28712 6.77242 127 ft 15 kts 233°
2026-05-07 21:03 51.28642 6.77095 128 ft 20 kts 232°
2026-05-07 21:03 51.28539 6.76879 123 ft 28 kts 233°
2026-05-07 21:03 51.28426 6.76645 126 ft 25 kts 232°
2026-05-07 21:03 51.28355 6.76500 123 ft 10 kts 225°
2026-05-07 21:04 51.28298 6.76496 126 ft 7 kts 159°
2026-05-07 21:04 51.28260 6.76479 128 ft 6 kts 227°
2026-05-07 21:04 51.28215 6.76437 130 ft 11 kts 192°
2026-05-07 21:04 51.28160 6.76449 127 ft 8 kts 133°
2026-05-07 21:05 51.28151 6.76523 128 ft 2 kts 96°
2026-05-07 21:05 51.28150 6.76540 129 ft 0 kts 96°